This is the latest recevied weather packets stored in our database for station/object OM0AGP-15. If no packets are shown the sender has not sent any weather packets the latest 10 day(s).
| Time | Temp. | Humidity | Pressure | Rain* | Wind** | Luminosity | Snow |
|---|---|---|---|---|---|---|---|
| 1777171546 | 10.56° C | 35% | 1008.1 hPa | - | - | - | - |
| 1777170646 | 11.11° C | 34% | 1008 hPa | - | - | - | - |
| 1777169746 | 11.11° C | 34% | 1007.9 hPa | - | - | - | - |
| 1777168846 | 11.11° C | 33% | 1007.9 hPa | - | - | - | - |
| 1777167946 | 10.56° C | 34% | 1008.1 hPa | - | - | - | - |
| 1777167046 | 10.56° C | 36% | 1008 hPa | - | - | - | - |
| 1777166146 | 11.11° C | 37% | 1008.1 hPa | - | - | - | - |
| 1777165245 | 10.56° C | 40% | 1008.3 hPa | - | - | - | - |
| 1777164346 | 10° C | 37% | 1008.4 hPa | - | - | - | - |
| 1777163445 | 10° C | 40% | 1008.5 hPa | - | - | - | - |
| 1777162545 | 8.89° C | 40% | 1008.7 hPa | - | - | - | - |
| 1777161645 | 8.33° C | 42% | 1008.6 hPa | - | - | - | - |
| 1777160745 | 7.78° C | 44% | 1008.7 hPa | - | - | - | - |
| 1777159845 | 8.33° C | 43% | 1008.8 hPa | - | - | - | - |
| 1777158945 | 8.33° C | 43% | 1009.1 hPa | - | - | - | - |
| 1777158045 | 8.89° C | 42% | 1009.2 hPa | - | - | - | - |
| 1777157145 | 8.89° C | 43% | 1009.4 hPa | - | - | - | - |
| 1777156245 | 9.44° C | 44% | 1009.7 hPa | - | - | - | - |
| 1777155345 | 9.44° C | 45% | 1009.7 hPa | - | - | - | - |
| 1777154445 | 10° C | 45% | 1009.7 hPa | - | - | - | - |
| 1777153545 | 10.56° C | 46% | 1009.7 hPa | - | - | - | - |
| 1777152645 | 11.67° C | 50% | 1009.8 hPa | - | - | - | - |
| 1777151745 | 11.67° C | 55% | 1009.9 hPa | - | - | - | - |
| 1777150844 | 11.11° C | 52% | 1009.9 hPa | - | - | - | - |
| 1777149944 | 11.11° C | 49% | 1009.8 hPa | - | - | - | - |
* Rain since midnight (hover to see other rain measurements)
** Current wind speed in m/s (hover to see current wind gust speed)